Regional Weather Roundup
Issued by NWS Goodland, KS

Home | Current Version | Previous Version | Text Only | Print | Product List | Glossary Off
Versions: 1 2 3 4 5 6 7 8 9 10 11 12 13 14 15 16 17 18 19 20 21 22 23 24 25 26 27 28 29 30 31 32 33 34 35 36 37 38 39 40 41 42 43 44 45 46 47 48 49 50

000
ASUS43 KGLD 250959
RWRGLD

GOODLAND FORECAST AREA HOURLY WEATHER ROUNDUP
NATIONAL WEATHER SERVICE GOODLAND KS
400 AM MDT SAT MAR 25 2017

...OFFICIAL OBSERVATIONS...

CITY           SKY/WX    TMP DP  RH WIND       PRES   REMARKS
GOODLAND KS    CLEAR     32  30  92 NW8       30.05F
HILL CITY KS   CLOUDY    43  40  89 N10       30.01F
IMPERIAL NEB   CLEAR     32  27  81 NW8       30.05F
MCCOOK NEB     CLEAR     34  33  96 NW10      30.04S
AKRON CO       CLEAR     35  30  82 W5        30.07S
BURLINGTON CO  CLEAR     32  30  92 NW12      30.06F
LIMON CO       CLOUDY    28  26  92 N6        30.08F
$$

...UNOFFICIAL OBSERVATIONS...

CITY           SKY/WX    TMP DP  RH WIND       PRES   REMARKS
LENORA KS        N/A     42  32  68 CALM        N/A
NORTON KS      CLOUDY    39  36  87 NW14      30.00F
SHARON SPRINGS   N/A     33  30  90 NW8         N/A
TRENTON NEB      N/A     33  32  96 N6          N/A
YUMA CO        FAIR      30  28  93 W7        30.07F
$$




USA.gov is the U.S. government's official web portal to all federal, state and local government web resources and services.